contact:dominique.lefevre@mio.osupytheas.fr, maurice.libes@osupytheas.fr, didier.mallarino@osupytheas.fr
Project:EMSO http://www.emso-fr.org/EMSO-France
Depth: 2436.0 m
Title:EMSO Ligure Ouest : Data MII capteur CSTAR
DateTime,Latitude,Longitude,Instrument_Serial,Reference_Counts,Signal_Counts,Corrected_Signal_raw_counts,Calculated_Beam_c_inverse_meters,Internal_thermistor_counts
DateTime,Latitude,Longitude,Instrument_Serial,Reference_Counts,Signal_Counts,Corrected_Signal_raw_counts,Calculated_Beam_c_inverse_meters,Internal_thermistor_counts
2022-01-16T00:02:48,42.805,6.029,CST-1368DR,4971,6300,13541,0.570,551
2022-01-16T00:05:50,42.805,6.029,CST-1368DR,4971,6301,13544,0.569,551
2022-01-16T00:08:51,42.805,6.029,CST-1368DR,4971,6302,13545,0.569,551
2022-01-16T00:11:53,42.805,6.029,CST-1368DR,4971,6301,13544,0.569,551
2022-01-16T00:14:54,42.805,6.029,CST-1368DR,4971,6301,13543,0.570,551
2022-01-16T00:17:56,42.805,6.029,CST-1368DR,4971,6301,13543,0.570,551
2022-01-16T00:20:58,42.805,6.029,CST-1368DR,4971,6301,13543,0.570,551
2022-01-16T00:23:59,42.805,6.029,CST-1368DR,4971,6301,13543,0.570,551
2022-01-16T00:27:01,42.805,6.029,CST-1368DR,4971,6300,13541,0.570,551
2022-01-16T00:30:02,42.805,6.029,CST-1368DR,4971,6301,13544,0.569,551
2022-01-16T00:33:04,42.805,6.029,CST-1368DR,4971,6301,13544,0.569,551
2022-01-16T00:36:06,42.805,6.029,CST-1368DR,4971,6300,13542,0.570,551
2022-01-16T00:39:07,42.805,6.029,CST-1368DR,4971,6301,13543,0.570,551
2022-01-16T00:42:09,42.805,6.029,CST-1368DR,4971,6300,13542,0.570,551
2022-01-16T00:45:10,42.805,6.029,CST-1368DR,4971,6300,13542,0.570,551
2022-01-16T00:48:12,42.805,6.029,CST-1368DR,4971,6300,13542,0.570,551
2022-01-16T00:51:13,42.805,6.029,CST-1368DR,4970,6300,13544,0.569,551
2022-01-16T00:54:15,42.805,6.029,CST-1368DR,4971,6299,13540,0.571,551
2022-01-16T00:57:17,42.805,6.029,CST-1368DR,4971,6300,13542,0.570,551
2022-01-16T01:00:18,42.805,6.029,CST-1368DR,4971,6301,13544,0.569,551
2022-01-16T01:03:20,42.805,6.029,CST-1368DR,4971,6301,13544,0.569,551
2022-01-16T01:06:21,42.805,6.029,CST-1368DR,4971,6301,13543,0.570,551
2022-01-16T01:09:23,42.805,6.029,CST-1368DR,4971,6300,13542,0.570,551
2022-01-16T01:12:24,42.805,6.029,CST-1368DR,4970,6300,13543,0.570,551
2022-01-16T01:15:26,42.805,6.029,CST-1368DR,4970,6300,13545,0.569,551
2022-01-16T01:18:28,42.805,6.029,CST-1368DR,4971,6300,13542,0.570,551
2022-01-16T01:21:29,42.805,6.029,CST-1368DR,4970,6301,13546,0.569,551
2022-01-16T01:24:31,42.805,6.029,CST-1368DR,4970,6300,13543,0.570,551
2022-01-16T01:27:32,42.805,6.029,CST-1368DR,4970,6298,13540,0.571,551
2022-01-16T01:30:34,42.805,6.029,CST-1368DR,4971,6300,13542,0.570,551
2022-01-16T01:33:36,42.805,6.029,CST-1368DR,4970,6300,13545,0.569,551
2022-01-16T01:36:37,42.805,6.029,CST-1368DR,4970,6300,13544,0.569,551
2022-01-16T01:39:39,42.805,6.029,CST-1368DR,4971,6300,13541,0.570,551
2022-01-16T01:42:40,42.805,6.029,CST-1368DR,4971,6301,13543,0.570,551
2022-01-16T01:45:42,42.805,6.029,CST-1368DR,4970,6301,13546,0.569,551
2022-01-16T01:48:43,42.805,6.029,CST-1368DR,4970,6300,13543,0.570,551
2022-01-16T01:51:45,42.805,6.029,CST-1368DR,4970,6300,13543,0.570,551
2022-01-16T01:54:47,42.805,6.029,CST-1368DR,4970,6300,13543,0.570,551
2022-01-16T01:57:48,42.805,6.029,CST-1368DR,4971,6298,13538,0.571,551
2022-01-16T02:00:50,42.805,6.029,CST-1368DR,4971,6300,13542,0.570,551
2022-01-16T02:03:51,42.805,6.029,CST-1368DR,4970,6300,13545,0.569,551
2022-01-16T02:06:53,42.805,6.029,CST-1368DR,4971,6300,13541,0.570,551
2022-01-16T02:09:54,42.805,6.029,CST-1368DR,4970,6300,13544,0.569,551
2022-01-16T02:12:56,42.805,6.029,CST-1368DR,4970,6300,13544,0.569,551
2022-01-16T02:15:58,42.805,6.029,CST-1368DR,4970,6299,13542,0.570,551
2022-01-16T02:18:59,42.805,6.029,CST-1368DR,4970,6300,13544,0.569,551
2022-01-16T02:22:01,42.805,6.029,CST-1368DR,4970,6300,13543,0.570,551
2022-01-16T02:25:02,42.805,6.029,CST-1368DR,4970,6300,13545,0.569,551
2022-01-16T02:28:04,42.805,6.029,CST-1368DR,4970,6300,13543,0.570,551
2022-01-16T02:31:06,42.805,6.029,CST-1368DR,4970,6300,13545,0.569,551
2022-01-16T02:34:07,42.805,6.029,CST-1368DR,4970,6299,13541,0.570,551
2022-01-16T02:37:09,42.805,6.029,CST-1368DR,4970,6300,13543,0.570,551
2022-01-16T02:40:10,42.805,6.029,CST-1368DR,4970,6300,13543,0.570,551
2022-01-16T02:43:12,42.805,6.029,CST-1368DR,4970,6298,13539,0.571,551
2022-01-16T02:46:13,42.805,6.029,CST-1368DR,4970,6300,13544,0.569,551
2022-01-16T02:49:15,42.805,6.029,CST-1368DR,4970,6300,13543,0.570,551
2022-01-16T02:52:17,42.805,6.029,CST-1368DR,4970,6300,13543,0.570,551
2022-01-16T02:55:18,42.805,6.029,CST-1368DR,4970,6300,13545,0.569,551
2022-01-16T02:58:20,42.805,6.029,CST-1368DR,4970,6299,13542,0.570,551
2022-01-16T03:01:21,42.805,6.029,CST-1368DR,4970,6300,13543,0.570,551
2022-01-16T03:04:23,42.805,6.029,CST-1368DR,4970,6300,13544,0.569,551
2022-01-16T03:07:24,42.805,6.029,CST-1368DR,4970,6300,13543,0.570,550
2022-01-16T03:10:26,42.805,6.029,CST-1368DR,4970,6300,13543,0.570,551
2022-01-16T03:13:28,42.805,6.029,CST-1368DR,4970,6300,13543,0.570,551
2022-01-16T03:16:29,42.805,6.029,CST-1368DR,4970,6300,13543,0.570,551
2022-01-16T03:19:31,42.805,6.029,CST-1368DR,4970,6299,13542,0.570,551
2022-01-16T03:22:32,42.805,6.029,CST-1368DR,4970,6300,13543,0.570,551
2022-01-16T03:25:34,42.805,6.029,CST-1368DR,4970,6299,13541,0.570,551
2022-01-16T03:28:36,42.805,6.029,CST-1368DR,4970,6299,13541,0.570,551
2022-01-16T03:31:37,42.805,6.029,CST-1368DR,4970,6299,13542,0.570,551
2022-01-16T03:34:39,42.805,6.029,CST-1368DR,4970,6300,13543,0.570,551
2022-01-16T03:37:40,42.805,6.029,CST-1368DR,4970,6299,13541,0.570,551
2022-01-16T03:40:42,42.805,6.029,CST-1368DR,4970,6300,13543,0.570,551
2022-01-16T03:43:43,42.805,6.029,CST-1368DR,4970,6300,13543,0.570,551
2022-01-16T03:46:45,42.805,6.029,CST-1368DR,4970,6299,13542,0.570,551
2022-01-16T03:49:47,42.805,6.029,CST-1368DR,4970,6300,13543,0.570,551
2022-01-16T03:52:48,42.805,6.029,CST-1368DR,4970,6299,13542,0.570,551
2022-01-16T03:55:50,42.805,6.029,CST-1368DR,4970,6300,13543,0.570,551
2022-01-16T03:58:51,42.805,6.029,CST-1368DR,4970,6299,13541,0.570,551
2022-01-16T04:01:53,42.805,6.029,CST-1368DR,4970,6299,13541,0.570,551
2022-01-16T04:04:55,42.805,6.029,CST-1368DR,4970,6300,13543,0.570,551
2022-01-16T04:07:56,42.805,6.029,CST-1368DR,4970,6299,13542,0.570,551
2022-01-16T04:10:58,42.805,6.029,CST-1368DR,4970,6299,13542,0.570,551
2022-01-16T04:13:59,42.805,6.029,CST-1368DR,4970,6300,13543,0.570,551
2022-01-16T04:17:01,42.805,6.029,CST-1368DR,4970,6299,13542,0.570,551
2022-01-16T04:20:02,42.805,6.029,CST-1368DR,4970,6300,13543,0.570,551
2022-01-16T04:23:04,42.805,6.029,CST-1368DR,4970,6299,13542,0.570,551
2022-01-16T04:26:06,42.805,6.029,CST-1368DR,4970,6300,13544,0.569,551
2022-01-16T04:29:07,42.805,6.029,CST-1368DR,4970,6300,13544,0.569,551
2022-01-16T04:32:09,42.805,6.029,CST-1368DR,4970,6300,13543,0.570,551
2022-01-16T04:35:10,42.805,6.029,CST-1368DR,4970,6300,13543,0.570,551
2022-01-16T04:38:12,42.805,6.029,CST-1368DR,4970,6297,13536,0.572,551
2022-01-16T04:41:14,42.805,6.029,CST-1368DR,4970,6299,13542,0.570,551
2022-01-16T04:44:15,42.805,6.029,CST-1368DR,4970,6300,13543,0.570,551
2022-01-16T04:47:17,42.805,6.029,CST-1368DR,4970,6300,13543,0.570,551
2022-01-16T04:50:18,42.805,6.029,CST-1368DR,4970,6299,13542,0.570,551
2022-01-16T04:53:20,42.805,6.029,CST-1368DR,4970,6299,13542,0.570,551
2022-01-16T04:56:21,42.805,6.029,CST-1368DR,4970,6300,13543,0.570,551
2022-01-16T04:59:23,42.805,6.029,CST-1368DR,4970,6300,13543,0.570,551
2022-01-16T05:02:25,42.805,6.029,CST-1368DR,4970,6295,13534,0.572,551
2022-01-16T05:05:26,42.805,6.029,CST-1368DR,4970,6299,13542,0.570,551
2022-01-16T05:08:28,42.805,6.029,CST-1368DR,4970,6298,13539,0.571,551
2022-01-16T05:11:29,42.805,6.029,CST-1368DR,4970,6299,13542,0.570,551
2022-01-16T05:14:31,42.805,6.029,CST-1368DR,4970,6300,13543,0.570,550
2022-01-16T05:17:32,42.805,6.029,CST-1368DR,4970,6299,13541,0.570,551
2022-01-16T05:20:34,42.805,6.029,CST-1368DR,4970,6299,13542,0.570,551
2022-01-16T05:23:36,42.805,6.029,CST-1368DR,4970,6299,13542,0.570,551
2022-01-16T05:26:37,42.805,6.029,CST-1368DR,4970,6300,13544,0.569,551
2022-01-16T05:29:39,42.805,6.029,CST-1368DR,4970,6299,13542,0.570,551
2022-01-16T05:32:40,42.805,6.029,CST-1368DR,4970,6299,13542,0.570,551
2022-01-16T05:35:42,42.805,6.029,CST-1368DR,4970,6299,13542,0.570,551
2022-01-16T05:38:44,42.805,6.029,CST-1368DR,4970,6300,13543,0.570,551
2022-01-16T05:41:45,42.805,6.029,CST-1368DR,4970,6299,13542,0.570,551
2022-01-16T05:44:47,42.805,6.029,CST-1368DR,4970,6299,13541,0.570,551
2022-01-16T05:47:48,42.805,6.029,CST-1368DR,4970,6299,13542,0.570,551
2022-01-16T05:50:50,42.805,6.029,CST-1368DR,4970,6299,13541,0.570,551
2022-01-16T05:53:51,42.805,6.029,CST-1368DR,4970,6299,13542,0.570,551
2022-01-16T05:56:53,42.805,6.029,CST-1368DR,4970,6299,13542,0.570,551
2022-01-16T05:59:55,42.805,6.029,CST-1368DR,4970,6300,13543,0.570,551
2022-01-16T06:02:56,42.805,6.029,CST-1368DR,4970,6299,13542,0.570,551
2022-01-16T06:05:58,42.805,6.029,CST-1368DR,4970,6300,13543,0.570,551
2022-01-16T06:08:59,42.805,6.029,CST-1368DR,4970,6299,13541,0.570,551
2022-01-16T06:12:01,42.805,6.029,CST-1368DR,4970,6298,13540,0.571,551
2022-01-16T06:15:03,42.805,6.029,CST-1368DR,4970,6299,13541,0.570,551
2022-01-16T06:18:04,42.805,6.029,CST-1368DR,4970,6299,13542,0.570,551
2022-01-16T06:21:06,42.805,6.029,CST-1368DR,4970,6298,13539,0.571,551
2022-01-16T06:24:07,42.805,6.029,CST-1368DR,4970,6299,13541,0.570,551
2022-01-16T06:27:09,42.805,6.029,CST-1368DR,4970,6300,13543,0.570,551
2022-01-16T06:30:10,42.805,6.029,CST-1368DR,4970,6300,13543,0.570,551
2022-01-16T06:33:12,42.805,6.029,CST-1368DR,4970,6299,13542,0.570,551
2022-01-16T06:36:14,42.805,6.029,CST-1368DR,4970,6297,13536,0.572,551
2022-01-16T06:39:15,42.805,6.029,CST-1368DR,4970,6299,13542,0.570,551
2022-01-16T06:42:17,42.805,6.029,CST-1368DR,4970,6299,13542,0.570,551
2022-01-16T06:45:18,42.805,6.029,CST-1368DR,4970,6299,13541,0.570,551
2022-01-16T06:48:20,42.805,6.029,CST-1368DR,4970,6300,13543,0.570,551
2022-01-16T06:51:21,42.805,6.029,CST-1368DR,4970,6298,13540,0.571,551
2022-01-16T06:54:23,42.805,6.029,CST-1368DR,4970,6300,13543,0.570,551
2022-01-16T06:57:25,42.805,6.029,CST-1368DR,4970,6299,13541,0.570,551
2022-01-16T07:00:26,42.805,6.029,CST-1368DR,4970,6299,13542,0.570,551
2022-01-16T07:03:28,42.805,6.029,CST-1368DR,4970,6299,13541,0.570,551
2022-01-16T07:06:29,42.805,6.029,CST-1368DR,4970,6299,13542,0.570,551
2022-01-16T07:09:31,42.805,6.029,CST-1368DR,4970,6298,13540,0.571,551
2022-01-16T07:12:33,42.805,6.029,CST-1368DR,4970,6299,13541,0.570,551
2022-01-16T07:15:34,42.805,6.029,CST-1368DR,4970,6299,13542,0.570,551
2022-01-16T07:18:36,42.805,6.029,CST-1368DR,4970,6299,13541,0.570,551
2022-01-16T07:21:37,42.805,6.029,CST-1368DR,4970,6293,13528,0.574,551
2022-01-16T07:24:39,42.805,6.029,CST-1368DR,4970,6298,13540,0.571,551
2022-01-16T07:27:40,42.805,6.029,CST-1368DR,4970,6299,13541,0.570,551
2022-01-16T07:30:42,42.805,6.029,CST-1368DR,4970,6298,13540,0.571,551
2022-01-16T07:33:44,42.805,6.029,CST-1368DR,4970,6299,13542,0.570,551
2022-01-16T07:36:45,42.805,6.029,CST-1368DR,4970,6299,13541,0.570,551
2022-01-16T07:39:47,42.805,6.029,CST-1368DR,4970,6297,13537,0.571,551
2022-01-16T07:42:48,42.805,6.029,CST-1368DR,4970,6299,13542,0.570,551
2022-01-16T07:45:50,42.805,6.029,CST-1368DR,4970,6298,13540,0.571,551
2022-01-16T07:48:52,42.805,6.029,CST-1368DR,4970,6298,13539,0.571,551
2022-01-16T07:51:53,42.805,6.029,CST-1368DR,4970,6299,13541,0.570,551
2022-01-16T07:54:55,42.805,6.029,CST-1368DR,4970,6298,13540,0.571,551
2022-01-16T07:57:56,42.805,6.029,CST-1368DR,4970,6299,13541,0.570,551
2022-01-16T08:00:58,42.805,6.029,CST-1368DR,4970,6299,13541,0.570,551
2022-01-16T08:03:59,42.805,6.029,CST-1368DR,4970,6299,13542,0.570,551
2022-01-16T08:07:01,42.805,6.029,CST-1368DR,4970,6299,13541,0.570,551
2022-01-16T08:10:03,42.805,6.029,CST-1368DR,4970,6299,13541,0.570,551
2022-01-16T08:13:04,42.805,6.029,CST-1368DR,4970,6299,13542,0.570,551
2022-01-16T08:16:06,42.805,6.029,CST-1368DR,4970,6299,13541,0.570,551
2022-01-16T08:19:07,42.805,6.029,CST-1368DR,4970,6299,13541,0.570,551
2022-01-16T08:22:09,42.805,6.029,CST-1368DR,4970,6299,13542,0.570,551
2022-01-16T08:25:10,42.805,6.029,CST-1368DR,4970,6296,13535,0.572,551
2022-01-16T08:28:12,42.805,6.029,CST-1368DR,4970,6298,13540,0.571,551
2022-01-16T08:31:14,42.805,6.029,CST-1368DR,4970,6299,13542,0.570,551
2022-01-16T08:34:15,42.805,6.029,CST-1368DR,4970,6299,13542,0.570,551
2022-01-16T08:37:17,42.805,6.029,CST-1368DR,4970,6299,13541,0.570,551
2022-01-16T08:40:18,42.805,6.029,CST-1368DR,4970,6298,13540,0.571,551
2022-01-16T08:43:20,42.805,6.029,CST-1368DR,4970,6298,13540,0.571,551
2022-01-16T08:46:22,42.805,6.029,CST-1368DR,4970,6298,13540,0.571,551
2022-01-16T08:49:23,42.805,6.029,CST-1368DR,4970,6298,13540,0.571,551
2022-01-16T08:52:25,42.805,6.029,CST-1368DR,4970,6298,13540,0.571,551
2022-01-16T08:55:26,42.805,6.029,CST-1368DR,4970,6299,13541,0.570,551
2022-01-16T08:58:28,42.805,6.029,CST-1368DR,4970,6298,13540,0.571,551
2022-01-16T09:01:29,42.805,6.029,CST-1368DR,4970,6299,13541,0.570,551
2022-01-16T09:04:31,42.805,6.029,CST-1368DR,4970,6298,13539,0.571,551
2022-01-16T09:07:33,42.805,6.029,CST-1368DR,4970,6299,13541,0.570,551
2022-01-16T09:10:34,42.805,6.029,CST-1368DR,4970,6299,13541,0.570,551
2022-01-16T09:13:36,42.805,6.029,CST-1368DR,4970,6299,13541,0.570,551
2022-01-16T09:16:37,42.805,6.029,CST-1368DR,4970,6298,13540,0.571,551
2022-01-16T09:19:39,42.805,6.029,CST-1368DR,4970,6298,13539,0.571,551
2022-01-16T09:22:40,42.805,6.029,CST-1368DR,4970,6297,13538,0.571,551
2022-01-16T09:25:42,42.805,6.029,CST-1368DR,4970,6298,13539,0.571,551
2022-01-16T09:28:44,42.805,6.029,CST-1368DR,4970,6299,13541,0.570,551
2022-01-16T09:31:45,42.805,6.029,CST-1368DR,4970,6298,13539,0.571,551
2022-01-16T09:34:47,42.805,6.029,CST-1368DR,4970,6298,13540,0.571,551
2022-01-16T09:37:48,42.805,6.029,CST-1368DR,4970,6298,13540,0.571,551
2022-01-16T09:40:50,42.805,6.029,CST-1368DR,4970,6299,13541,0.570,551
2022-01-16T09:43:52,42.805,6.029,CST-1368DR,4970,6290,13521,0.576,550
2022-01-16T09:46:53,42.805,6.029,CST-1368DR,4970,6297,13538,0.571,551
2022-01-16T09:49:55,42.805,6.029,CST-1368DR,4970,6299,13541,0.570,551
2022-01-16T09:52:56,42.805,6.029,CST-1368DR,4970,6298,13540,0.571,551
2022-01-16T09:55:58,42.805,6.029,CST-1368DR,4970,6299,13541,0.570,551
2022-01-16T09:58:59,42.805,6.029,CST-1368DR,4970,6299,13541,0.570,551
2022-01-16T10:02:01,42.805,6.029,CST-1368DR,4970,6298,13540,0.571,551
2022-01-16T10:05:03,42.805,6.029,CST-1368DR,4970,6298,13540,0.571,551
2022-01-16T10:08:04,42.805,6.029,CST-1368DR,4970,6298,13539,0.571,551
2022-01-16T10:11:06,42.805,6.029,CST-1368DR,4970,6298,13540,0.571,551
2022-01-16T10:14:07,42.805,6.029,CST-1368DR,4970,6298,13540,0.571,551
2022-01-16T10:17:09,42.805,6.029,CST-1368DR,4970,6298,13540,0.571,551
2022-01-16T10:20:10,42.805,6.029,CST-1368DR,4970,6298,13539,0.571,551
2022-01-16T10:23:12,42.805,6.029,CST-1368DR,4970,6296,13536,0.572,551
2022-01-16T10:26:14,42.805,6.029,CST-1368DR,4970,6298,13540,0.571,551
2022-01-16T10:29:15,42.805,6.029,CST-1368DR,4970,6296,13534,0.572,551
2022-01-16T10:32:17,42.805,6.029,CST-1368DR,4970,6297,13538,0.571,551
2022-01-16T10:35:18,42.805,6.029,CST-1368DR,4970,6298,13539,0.571,551
2022-01-16T10:38:20,42.805,6.029,CST-1368DR,4970,6298,13540,0.571,551
2022-01-16T10:41:22,42.805,6.029,CST-1368DR,4970,6298,13540,0.571,551
2022-01-16T10:44:23,42.805,6.029,CST-1368DR,4970,6297,13538,0.571,551
2022-01-16T10:47:25,42.805,6.029,CST-1368DR,4970,6298,13540,0.571,551
2022-01-16T10:50:26,42.805,6.029,CST-1368DR,4970,6298,13540,0.571,551
2022-01-16T10:53:28,42.805,6.029,CST-1368DR,4970,6298,13540,0.571,551
2022-01-16T10:56:29,42.805,6.029,CST-1368DR,4970,6298,13540,0.571,551
2022-01-16T10:59:31,42.805,6.029,CST-1368DR,4970,6298,13539,0.571,551
2022-01-16T11:02:33,42.805,6.029,CST-1368DR,4970,6298,13539,0.571,551
2022-01-16T11:05:34,42.805,6.029,CST-1368DR,4970,6298,13540,0.571,551
2022-01-16T11:08:36,42.805,6.029,CST-1368DR,4970,6298,13540,0.571,551
2022-01-16T11:11:37,42.805,6.029,CST-1368DR,4970,6298,13540,0.571,551
2022-01-16T11:14:39,42.805,6.029,CST-1368DR,4970,6298,13539,0.571,551
2022-01-16T11:17:41,42.805,6.029,CST-1368DR,4970,6298,13539,0.571,551
2022-01-16T11:20:42,42.805,6.029,CST-1368DR,4970,6297,13537,0.571,551
2022-01-16T11:23:44,42.805,6.029,CST-1368DR,4970,6297,13538,0.571,551
2022-01-16T11:26:45,42.805,6.029,CST-1368DR,4970,6298,13540,0.571,551
2022-01-16T11:29:47,42.805,6.029,CST-1368DR,4970,6298,13540,0.571,551
2022-01-16T11:32:48,42.805,6.029,CST-1368DR,4970,6298,13539,0.571,551
2022-01-16T11:35:50,42.805,6.029,CST-1368DR,4970,6299,13541,0.570,551
2022-01-16T11:38:52,42.805,6.029,CST-1368DR,4970,6298,13539,0.571,551
2022-01-16T11:41:53,42.805,6.029,CST-1368DR,4970,6298,13540,0.571,551
2022-01-16T11:44:55,42.805,6.029,CST-1368DR,4970,6298,13540,0.571,551
2022-01-16T11:47:56,42.805,6.029,CST-1368DR,4970,6298,13540,0.571,551
2022-01-16T11:50:58,42.805,6.029,CST-1368DR,4970,6298,13540,0.571,551
2022-01-16T11:53:59,42.805,6.029,CST-1368DR,4970,6298,13539,0.571,551
2022-01-16T11:57:01,42.805,6.029,CST-1368DR,4970,6298,13540,0.571,551
2022-01-16T12:00:03,42.805,6.029,CST-1368DR,4970,6298,13540,0.571,551
2022-01-16T12:03:04,42.805,6.029,CST-1368DR,4970,6297,13538,0.571,551
2022-01-16T12:06:06,42.805,6.029,CST-1368DR,4970,6298,13539,0.571,551
2022-01-16T12:09:07,42.805,6.029,CST-1368DR,4970,6298,13539,0.571,551
2022-01-16T12:12:09,42.805,6.029,CST-1368DR,4970,6296,13536,0.572,551
2022-01-16T12:15:11,42.805,6.029,CST-1368DR,4970,6298,13539,0.571,551
2022-01-16T12:18:12,42.805,6.029,CST-1368DR,4970,6297,13537,0.571,551
2022-01-16T12:21:14,42.805,6.029,CST-1368DR,4970,6297,13538,0.571,551
2022-01-16T12:24:15,42.805,6.029,CST-1368DR,4970,6296,13535,0.572,551
2022-01-16T12:27:17,42.805,6.029,CST-1368DR,4970,6298,13539,0.571,551
2022-01-16T12:30:18,42.805,6.029,CST-1368DR,4970,6297,13536,0.572,551
2022-01-16T12:33:20,42.805,6.029,CST-1368DR,4970,6297,13536,0.572,551
2022-01-16T12:36:22,42.805,6.029,CST-1368DR,4970,6297,13536,0.572,551
2022-01-16T12:39:23,42.805,6.029,CST-1368DR,4970,6297,13537,0.571,551
2022-01-16T12:42:25,42.805,6.029,CST-1368DR,4970,6296,13535,0.572,551
2022-01-16T12:45:26,42.805,6.029,CST-1368DR,4970,6296,13536,0.572,551
2022-01-16T12:48:28,42.805,6.029,CST-1368DR,4970,6297,13537,0.571,551
2022-01-16T12:51:29,42.805,6.029,CST-1368DR,4970,6296,13535,0.572,551
2022-01-16T12:54:31,42.805,6.029,CST-1368DR,4970,6297,13536,0.572,551
2022-01-16T12:57:33,42.805,6.029,CST-1368DR,4970,6297,13537,0.571,551
2022-01-16T13:00:34,42.805,6.029,CST-1368DR,4970,6296,13534,0.572,551
2022-01-16T13:03:36,42.805,6.029,CST-1368DR,4970,6296,13534,0.572,551
2022-01-16T13:06:37,42.805,6.029,CST-1368DR,4970,6297,13536,0.572,551
2022-01-16T13:09:39,42.805,6.029,CST-1368DR,4970,6296,13536,0.572,551
2022-01-16T13:12:41,42.805,6.029,CST-1368DR,4970,6297,13536,0.572,551
2022-01-16T13:15:42,42.805,6.029,CST-1368DR,4970,6296,13536,0.572,551
2022-01-16T13:18:44,42.805,6.029,CST-1368DR,4970,6297,13537,0.571,551
2022-01-16T13:21:45,42.805,6.029,CST-1368DR,4970,6296,13535,0.572,551
2022-01-16T13:24:47,42.805,6.029,CST-1368DR,4970,6296,13534,0.572,551
2022-01-16T13:27:48,42.805,6.029,CST-1368DR,4970,6297,13538,0.571,551
2022-01-16T13:30:50,42.805,6.029,CST-1368DR,4970,6295,13533,0.573,551
2022-01-16T13:33:52,42.805,6.029,CST-1368DR,4970,6296,13534,0.572,551
2022-01-16T13:36:53,42.805,6.029,CST-1368DR,4970,6295,13534,0.572,551
2022-01-16T13:39:55,42.805,6.029,CST-1368DR,4969,6295,13536,0.572,551
2022-01-16T13:42:56,42.805,6.029,CST-1368DR,4970,6296,13536,0.572,551
2022-01-16T13:45:58,42.805,6.029,CST-1368DR,4970,6296,13536,0.572,551
2022-01-16T13:48:59,42.805,6.029,CST-1368DR,4970,6296,13535,0.572,551
2022-01-16T13:52:01,42.805,6.029,CST-1368DR,4970,6297,13537,0.571,551
2022-01-16T13:55:03,42.805,6.029,CST-1368DR,4969,6296,13537,0.571,551
2022-01-16T13:58:04,42.805,6.029,CST-1368DR,4970,6296,13536,0.572,551
2022-01-16T14:01:06,42.805,6.029,CST-1368DR,4970,6296,13535,0.572,551
2022-01-16T14:04:07,42.805,6.029,CST-1368DR,4969,6296,13537,0.571,551
2022-01-16T14:07:09,42.805,6.029,CST-1368DR,4969,6294,13534,0.572,551
2022-01-16T14:10:11,42.805,6.029,CST-1368DR,4969,6295,13536,0.572,551
2022-01-16T14:13:12,42.805,6.029,CST-1368DR,4969,6296,13537,0.571,551
2022-01-16T14:16:14,42.805,6.029,CST-1368DR,4969,6296,13537,0.571,551
2022-01-16T14:19:15,42.805,6.029,CST-1368DR,4969,6295,13535,0.572,551
2022-01-16T14:22:17,42.805,6.029,CST-1368DR,4969,6296,13537,0.571,551
2022-01-16T14:25:18,42.805,6.029,CST-1368DR,4969,6295,13536,0.572,551
2022-01-16T14:28:20,42.805,6.029,CST-1368DR,4969,6296,13537,0.571,551
2022-01-16T14:31:22,42.805,6.029,CST-1368DR,4969,6295,13536,0.572,551
2022-01-16T14:34:23,42.805,6.029,CST-1368DR,4969,6296,13537,0.571,551
2022-01-16T14:37:25,42.805,6.029,CST-1368DR,4969,6296,13537,0.571,550
2022-01-16T14:40:26,42.805,6.029,CST-1368DR,4969,6295,13536,0.572,551
2022-01-16T14:43:28,42.805,6.029,CST-1368DR,4969,6295,13535,0.572,551
2022-01-16T14:46:30,42.805,6.029,CST-1368DR,4969,6296,13537,0.571,551
2022-01-16T14:49:31,42.805,6.029,CST-1368DR,4969,6295,13536,0.572,551
2022-01-16T14:52:33,42.805,6.029,CST-1368DR,4969,6293,13532,0.573,551
2022-01-16T14:55:34,42.805,6.029,CST-1368DR,4969,6295,13536,0.572,551
2022-01-16T14:58:36,42.805,6.029,CST-1368DR,4969,6294,13533,0.573,551
2022-01-16T15:01:37,42.805,6.029,CST-1368DR,4969,6295,13536,0.572,551
2022-01-16T15:04:39,42.805,6.029,CST-1368DR,4969,6295,13536,0.572,551
2022-01-16T15:07:41,42.805,6.029,CST-1368DR,4969,6295,13535,0.572,551
2022-01-16T15:10:42,42.805,6.029,CST-1368DR,4969,6295,13536,0.572,551
2022-01-16T15:13:44,42.805,6.029,CST-1368DR,4969,6295,13536,0.572,551
2022-01-16T15:16:45,42.805,6.029,CST-1368DR,4969,6295,13536,0.572,551
2022-01-16T15:19:47,42.805,6.029,CST-1368DR,4969,6295,13536,0.572,551
2022-01-16T15:22:49,42.805,6.029,CST-1368DR,4969,6295,13536,0.572,551
2022-01-16T15:25:50,42.805,6.029,CST-1368DR,4969,6294,13533,0.573,551
2022-01-16T15:28:52,42.805,6.029,CST-1368DR,4969,6295,13536,0.572,551
2022-01-16T15:31:53,42.805,6.029,CST-1368DR,4969,6295,13535,0.572,551
2022-01-16T15:34:55,42.805,6.029,CST-1368DR,4969,6295,13535,0.572,551
2022-01-16T15:37:56,42.805,6.029,CST-1368DR,4969,6294,13534,0.572,551
2022-01-16T15:40:58,42.805,6.029,CST-1368DR,4969,6295,13535,0.572,551
2022-01-16T15:44:00,42.805,6.029,CST-1368DR,4969,6295,13535,0.572,551
2022-01-16T15:47:01,42.805,6.029,CST-1368DR,4969,6294,13534,0.572,551
2022-01-16T15:50:03,42.805,6.029,CST-1368DR,4969,6295,13535,0.572,551
2022-01-16T15:53:04,42.805,6.029,CST-1368DR,4969,6294,13534,0.572,551
2022-01-16T15:56:06,42.805,6.029,CST-1368DR,4969,6295,13536,0.572,551
2022-01-16T15:59:07,42.805,6.029,CST-1368DR,4969,6291,13527,0.574,551
2022-01-16T16:02:09,42.805,6.029,CST-1368DR,4969,6295,13535,0.572,551
2022-01-16T16:05:11,42.805,6.029,CST-1368DR,4969,6295,13535,0.572,551
2022-01-16T16:08:12,42.805,6.029,CST-1368DR,4969,6294,13534,0.572,551
2022-01-16T16:11:14,42.805,6.029,CST-1368DR,4969,6295,13535,0.572,551
2022-01-16T16:14:15,42.805,6.029,CST-1368DR,4969,6295,13535,0.572,551
2022-01-16T16:17:17,42.805,6.029,CST-1368DR,4969,6295,13535,0.572,551
2022-01-16T16:20:19,42.805,6.029,CST-1368DR,4969,6294,13534,0.572,551
2022-01-16T16:23:20,42.805,6.029,CST-1368DR,4969,6294,13534,0.572,551
2022-01-16T16:26:22,42.805,6.029,CST-1368DR,4969,6293,13532,0.573,551
2022-01-16T16:29:23,42.805,6.029,CST-1368DR,4969,6295,13535,0.572,551
2022-01-16T16:32:25,42.805,6.029,CST-1368DR,4969,6294,13533,0.573,551
2022-01-16T16:35:26,42.805,6.029,CST-1368DR,4969,6293,13532,0.573,551
2022-01-16T16:38:28,42.805,6.029,CST-1368DR,4969,6294,13534,0.572,551
2022-01-16T16:41:30,42.805,6.029,CST-1368DR,4969,6294,13534,0.572,551
2022-01-16T16:44:31,42.805,6.029,CST-1368DR,4969,6294,13533,0.573,551
2022-01-16T16:47:33,42.805,6.029,CST-1368DR,4969,6294,13534,0.572,551
2022-01-16T16:50:34,42.805,6.029,CST-1368DR,4969,6294,13533,0.573,551
2022-01-16T16:53:36,42.805,6.029,CST-1368DR,4969,6294,13534,0.572,551